STARLINK-4675, 53601

Orbit data source: Space-Track

STARLINK-4675, 53601 is a payload satellite owned by SpaceX/Seattle (US) in LEO that was launched on Sun, 28 Aug 2022 UTC via an FALCON 9 launch vehicle from the Air Force Eastern Test Range (AFETR). Payload-class satellites include a variety of spacecraft equipped with specific instruments for various scientific and technological missions. These include communications satellites like Starlink; space stations such as the ISS; scientific satellites like the Hubble; Earth observation satellites from companies like Planet Labs, Umbra, and HawkEye 360; GPS; miniature CubeSats for education and research; and military/defense satellites.

Loading next visibility...
Identifier
53601, 2022-104P
Orbit
LEO
Country
Flag of USUS
Related business
Manufacturer
SpaceX/Seattle
Mission
Operational Commercial Communications
Bus & Motor
STARLINK, Unknown motor
Mass
300 kg wet, ~290 kg dry
Launch date (UTC)
2022-08-28 (4 years ago)
Launch vehicle
FALCON 9
Launch site
Air Force Eastern Test Range (AFETR)
Object type
Payload
Rocket body
Debris
Shape & HBR
Box + 1 Pan, 10.1 m
Radar Cross Section
13.562 m², Large (>1 m²)

Expand to show TLE details & history
Last TLE update: 16 hours ago

TLE from 16 hours ago
0 STARLINK-4675
1 53601U 22104P   26072.44389846  .00002568  00000-0  17942-3 0  9994
2 53601  53.2163 227.1225 0001357 104.5599 255.5543 15.08826773196188
Epoch: 2026-03-13T10:39Z
TLE epoch observation values (Epoch: 2026-03-13T10:39:12.826Z)
Latitude
-0.0001°
Longitude
-103.76037°
Altitude
540.915 km
Speed
7.593 km/s
True Right ascension
15h 08m 29s
True Declination
0° 00' 00"
Sunlit
Object was in full shadow at epoch
Visualization orbit readout
Latitude
Unknown
Longitude
Unknown
Altitude
Unknown
Speed
Unknown
Apparent Right ascension
Unknown
Apparent Declination
Unknown
Sunlit
N/A
Visualization observer readout
Local Sidereal Time
06:41:36
Azimuth
Unknown
Elevation
Unknown
Doppler factor
Unknown
Orbital elements
Apogee altitude
540.968 km
Perigee altitude
539.09 km
Semi-major axis
6,918.166 km
Eccentricity
0.00014
Inclination
53.2163°
RAAN
227.1225°
Arg. of periapsis
104.5599°
True anomaly
255.53924°
Mean anomaly
255.5543°
Eccentric anomaly
255.54677°
Mean motion
3.77187 °/min
Orbital period
95.44 mins
BSTAR
0.00017942
Loading maneuver chart data...
Computing Atmospheric mass density...
Loading historical data...
Loading historical data...
Loading historical data...
Loading historical data...
Loading historical data...
Loading historical data...
Loading historical data...

Documentation

Showing up to 5 results
|